DECAYED

STARLINK-1106, 44923 (Decayed)

Orbit data source: Space-Track

STARLINK-1106, 44923 was a payload satellite owned by SpaceX/Seattle (US) in LEO that was launched on Tue, 07 Jan 2020 UTC via an FALCON 9 launch vehicle from the Air Force Eastern Test Range (AFETR). Payload-class satellites include a variety of spacecraft equipped with specific instruments for various scientific and technological missions. These include communications satellites like Starlink; space stations such as the ISS; scientific satellites like the Hubble; Earth observation satellites from companies like Planet Labs, Umbra, and HawkEye 360; GPS; miniature CubeSats for education and research; and military/defense satellites.

Not visible in the next 10 days
Identifier
44923, 2020-001K
Orbit
Decayed
Country
Flag of USUS
Related business
Manufacturer
SpaceX/Seattle
Mission
Decayed Commercial Communications
Bus & Motor
STARLINK, Unknown motor
Mass
260 kg wet, ~248 kg dry
Launch date (UTC)
2020-01-07 (6 years ago)
Launch vehicle
FALCON 9
Launch site
Air Force Eastern Test Range (AFETR)
Object type
Payload
Rocket body
Debris
Shape & HBR
Box + 1 Pan, 10.1 m
Radar Cross Section
13.562 m², Large (>1 m²)

Expand to show TLE details & history
Last TLE update: 5 months ago

TLE from 5 months ago
0 STARLINK-1106
1 44923U 20001K   25124.07804022  .06426966  12127-4  94775-3 0  9993
2 44923  52.9788 139.5526 0007798 229.7430 169.8936 16.33644178295362
Epoch: 2025-05-04T01:52Z
TLE epoch observation values (Epoch: 2025-05-04T01:52:22.675Z)
Latitude
30.73006°
Longitude
-84.28263°
Altitude
189.601 km
Speed
7.794 km/s
True Right ascension
11h 04m 05s
True Declination
30° 33' 58"
Sunlit
Object was in full shadow at epoch
Visualization orbit readout
Latitude
Unknown
Longitude
Unknown
Altitude
Unknown
Speed
Unknown
Apparent Right ascension
Unknown
Apparent Declination
Unknown
Sunlit
N/A
Visualization observer readout
Local Sidereal Time
14:28:13
Azimuth
Unknown
Elevation
Unknown
Doppler factor
Unknown
Orbital elements
Apogee altitude
188.179 km
Perigee altitude
177.946 km
Semi-major axis
6,561.2 km
Eccentricity
0.00078
Inclination
52.9788°
RAAN
139.5526°
Arg. of periapsis
229.743°
True anomaly
169.90927°
Mean anomaly
169.8936°
Eccentric anomaly
169.90143°
Mean motion
4.08384 °/min
Orbital period
88.15 mins
BSTAR
0.00094775
Loading maneuver chart data...
Computing Atmospheric mass density...

Documentation

Showing up to 5 results
|